Location: Ladrillo (historical)
(32.8195°N, 117.2231°W)
Time: 01:05:22
(UTC+00:00)

Courier 1B - Pass Details

Date: 08 March 2021
Orbit: 963 x 1209 km, 28.3° (Epoch: 15 April)

Event Time Altitude Azimuth Distance (km) Brightness Sun altitude
Rises 15:09:57 0° 259° (WSW) 3,694 10.0 12.1°
Reaches altitude 10° 15:12:40 10° 255° (WSW) 2,722 9.4 12.6°
Maximum altitude 15:19:05 59° 178° (S) 1,100 8.2 13.9°
Drops below altitude 10° 15:25:25 10° 100° (E) 2,690 12.5 15.2°
Sets 15:28:06 0° 96° (E) 3,647 12.2 15.8°
